Location: Christian Reformed Church
(43.0975°N, 93.8113°W)
Time: 12:56:12
(UTC+00:00)

Okean 1-7 Rocket - Pass Details

Date: 20 March 2026
Orbit: 609 x 643 km, 82.5° (Epoch: 14 April)

Event Time Altitude Azimuth Distance (km) Brightness Sun altitude
Rises 10:03:01 0° 7° (N) 2,918 7.4 -24.8°
Reaches altitude 10° 10:05:54 10° 26° (NNE) 1,999 6.8 -24.3°
Maximum altitude 10:08:59 18° 70° (ENE) 1,516 6.4 -23.8°
Drops below altitude 10° 10:12:01 10° 115° (ESE) 1,975 6.7 -23.3°
Sets 10:14:49 0° 134° (SE) 2,870 7.3 -22.8°
